Regional Weather Roundup
Issued by NWS

Home | Current Version | Previous Version | Graphics & Text | Print | Product List | Glossary On
Versions: 1 2 3 4 5 6 7 8 9 10 11 12 13 14 15 16 17 18 19 20 21 22 23 24 25 26 27 28
000
ASUS45 KTFX 261710
RWRMT
MONTANA REGIONAL WEATHER ROUNDUP
NATIONAL WEATHER SERVICE GREAT FALLS MT
1100 AM MDT WED APR 26 2017

NOTE: "FAIR" INDICATES FEW OR NO CLOUDS BELOW 12000 FEET WITH NO
SIGNIFICANT WEATHER AND/OR OBSTRUCTIONS TO VISIBILITY.

MTZ001>007-043-261800-
WEST OF THE DIVIDE

CITY           SKY/WX    TMP DP  RH WIND       PRES   REMARKS
KALISPELL      LGT RAIN  41  37  86 CALM      29.70F
MISSOULA       CLOUDY    45  39  79 SE5       29.72F
BUTTE          CLOUDY    43  26  51 SW12G21   29.71F
MULLAN PASS    SNOW      31  30  96 SW3       29.66F VSB 1/4
ANACONDA         N/A     46  28  49 S12G17    29.70F
DEER LODGE       N/A     46  32  57 S7        29.71F
EUREKA           N/A     45  36  70 SE5       29.69F
HAMILTON         N/A     48  36  61 S14       29.70F
LIBBY            N/A     43  39  87 NW5       29.68F
PLAINS           N/A     47  40  76 MISG      29.72F
$$

MTZ008-052>055-261800-
SOUTHWEST MONTANA

CITY           SKY/WX    TMP DP  RH WIND       PRES   REMARKS
BOZEMAN        PTSUNNY   49  34  56 CALM      29.71F
DILLON         CLOUDY    46  29  51 SW16      29.72F
W YELLOWSTONE  CLOUDY    36  28  75 SW16G25   29.78S WCI  26
ENNIS          CLOUDY    45  27  49 S12G21    29.78F
THREE FORKS      N/A     47  36  65 CALM      29.74F
TWIN BRIDGES     N/A     46  27  48 E3        29.75F
$$

MTZ009-010-012-014-046-048-049-054-261800-
EAST SLOPES AND CENTRAL MONTANA

CITY           SKY/WX    TMP DP  RH WIND       PRES   REMARKS
CUT BANK       CLOUDY    41  36  82 SE6       29.67F
GREAT FALLS    CLOUDY    47  36  65 SW18      29.68F
MALMSTROM AFB  PTSUNNY   47  38  69 W13G26    29.69F
HELENA         CLOUDY    47  39  74 NW3       29.69F
AUGUSTA        CLOUDY    41  35  79 S10       29.66F
BOWMANS CRNR   PTSUNNY   42  36  80 S14       29.65F
CHOTEAU          N/A     43  39  87 SE10      29.69F
FAIRFIELD      CLOUDY    44  34  66 S9        29.67F
POWER            N/A     43  37  79 SW9       29.68F
RAYNESFORD     PTSUNNY   47  34  62 W12       29.68F
ULM            LGT RAIN  44  36  72 SW8       29.69F
$$

MTZ011-013-016-021-045-047-050-051-261800-
NORTH CENTRAL MONTANA

CITY           SKY/WX    TMP DP  RH WIND       PRES   REMARKS
HAVRE          CLOUDY    47  35  63 VRB5      29.72F
LEWISTOWN      PTSUNNY   42  35  76 E9        29.72F
N BAR RANCH    CLOUDY    37  34  87 S3        29.76F
CHINOOK          N/A     46  34  61 E18G24    29.74F
DENTON         PTSUNNY   40  40  97 E10G21    29.69F
FORT BENTON      N/A     48  37  66 MISG      29.71F
GEYSER           N/A     40  39  95 E3        29.70F
GRASS RANGE    CLOUDY    37  34  86 CALM      29.72F
JUDITH GAP     LGT RAIN  38  35  90 S15       29.72F WCI  29
STANFORD         N/A     40  39  99 SE3       29.69F
WINIFRED       PTSUNNY   40  40  97 E12       29.72F
$$

MTZ017>020-022>027-061-062-261800-
NORTHEAST MONTANA

CITY           SKY/WX    TMP DP  RH WIND       PRES   REMARKS
GLASGOW        CLOUDY    41  24  51 S13       29.85F
JORDAN           N/A     38  27  64 SE10      29.82F WCI  31
SIDNEY         PTSUNNY   40  24  53 NE8       29.89F
WOLF POINT     PTSUNNY   43  25  49 SE10      29.88F
MALTA          CLOUDY    43  27  52 SE14G22   29.80F
PLENTYWOOD       N/A     37  18  44 E8        29.90F WCI  31
POPLAR           N/A     39  21  48 E12       29.89F WCI  32
SCOBEY           N/A     41  19  41 E9        29.86F
$$

MTZ028>42-056>058-261800-
SOUTHCENTRAL AND SOUTHEAST MONTANA

CITY           SKY/WX    TMP DP  RH WIND       PRES   REMARKS
BAKER          CLOUDY    35  23  61 E7        29.86F WCI  29
BILLINGS       FLURRIES  36  34  92 S5        29.78F
LIVINGSTON     LGT RAIN  44  37  76 CALM      29.71F
MILES CITY     CLOUDY    38  26  62 SE12      29.84F WCI  30
BIG TIMBER     CLOUDY    39  37  93 NE5       29.76F
EKALAKA          N/A     34  24  67 NE5       29.82F
LAUREL           N/A     33  22  64 CALM      29.79F VSB 1
ROUNDUP          N/A     40  30  67 S2        29.71F
$$

REGIONAL REPORTS...DAKOTAS

CITY           SKY/WX    TMP DP  RH WIND       PRES   REMARKS
WILLISTON      MOSUNNY   42  22  44 E7        29.91F
MINOT          MOSUNNY   39  22  50 N18       29.87F WCI  30
DICKINSON      MOSUNNY   39  21  48 VRB5G18   29.83F
BEACH          CLOUDY    39  23  52 E8G16     29.89F
TIOGA            N/A     37  23  56 E8G18     29.90F WCI  31
WATFORD CITY     N/A     39  21  48 VRB6G13   29.88F
BISMARCK       PTSUNNY   39  25  57 NE17      29.84F WCI  30
GRAND FORKS    FLURRIES  31  25  78 NE20      29.82F WCI  19
FARGO          LGT SNOW  29  26  89 N17       29.75F FOG     WCI  17
BUFFALO SD       N/A     34  24  67 NE8       29.78F WCI  27
RAPID CITY     CLOUDY    32  24  72 N12       29.84F WCI  23
$$

REGIONAL REPORTS...WYOMING/IDAHO/WASHINGTON

CITY           SKY/WX    TMP DP  RH WIND       PRES   REMARKS
GILLETTE       CLOUDY    31  32 100 CALM      29.77F
SHERIDAN       CLOUDY    30  27  88 CALM      29.79S
BUFFALO WY     CLOUDY    30  25  81 CALM      29.75S
CODY           MOSUNNY   48  26  42 W15G23    29.73F
YELLOWSTONE LA   N/A     33  27  78 VRB5      29.78F
IDAHO FALLS    CLOUDY    44  36  73 S18       29.82S
SALMON         CLOUDY    46  34  61 N6        29.73F
BOISE          CLOUDY    52  42  69 SE6       29.79F
SPOKANE        CLOUDY    48  40  73 SW13      29.70S
$$

REGIONAL REPORTS...ALBERTA

CITY           SKY/WX    TMP DP  RH WIND       PRES   REMARKS
EDMONTON       CLOUDY    34  25  69 SE10      29.77F WCI  26
CALGARY        CLOUDY    32  27  80 SE9       29.68F HAZE    WCI  24
LETHBRIDGE     FLURRIES  34  32  93 E7        29.70F WCI  28
MEDICINE HAT   LGT RAIN  37  34  87 VRB2      29.73F
CARDSTON         N/A     41  36  81 NE1         N/A
MILK RIVER       N/A     36  36 100 SE3         N/A
ONEFOUR          N/A     37  36  93 SE9         N/A  WCI  31
$$

REGIONAL REPORTS...SASKATCHEWAN

CITY           SKY/WX    TMP DP  RH WIND       PRES   REMARKS
SWIFT CURRENT  CLOUDY    39  28  65 SE20G26   29.79F WCI  30
REGINA         PTSUNNY   36  19  51 SE10      29.93F WCI  28
SASKATOON      FLURRIES  36  28  75 SE17G25   29.94F WCI  25
CYPRESS HILLS    N/A     32  30  93 S12         N/A  WCI  23
VAL MARIE        N/A     41  25  52 S17         N/A
ROCKGLEN         N/A     36  25  64 SE14        N/A  WCI  27
ASSINIBOIA       N/A     34  28  80 E10         N/A  WCI  26
$$




USA.gov is the U.S. government's official web portal to all federal, state and local government web resources and services.